Presure
409 130 153 123 145 168 126 104 161 137 132 153 164 193 153 150 136 117 130 135 142 145 128 139 147 150 111 121 127 146 135 134 162 124 142 179 171 130 189 162 159 173 134
196 247 148 114 167 108 82 82 83 84 90 138 105 118 138 104 125 135 111 108 114 134 128 150 146 124 101 133 128 130 152 139 134 122 107 147 109 121 177 138 136 155 191
256 169 200 266 251 121 114 141 138 160 139 114 157 119 123 135 108 156 115 115 121 129 142 159 136 137 132 144 143 161 142 150 112 130 150 158 190 166 132 164 183 195 115
220 115 129 186 237 186 176 76 130 137 134 158 122 122 122 130 117 147 147 122 142 140 166 144 123 129 142 127 126 140 137 191 151 103 135 155 153 161 191 155 153 114 181
118 129 106 102 185 178 171 161 148 156 143 118 116 130 83 99 124 143 123 137 144 114 200 118 122 122 133 120 169 127 151 190 127 157 174 175 146 124 177 147 201 208 194
149 100 128 264 165 135 176 190 162 119 133 136 155 97 127 117 118 129 140 121 91 141 128 109 111 111 129 135 135 155 152 179 130 109 137 148 130 135 129 140 149 127 146
169 125 137 192 136 126 120 108 108 191 127 144 137 109 132 91 107 152 116 98 122 116 199 108 112 136 97 168 131 172 159 159 162 124 121 174 154 121 98 138 118 133 126
158 150 149 146 242 129 157 190 216 148 187 117 140 146 92 112 163 139 131 143 129 169 147 148 123 139 185 149 138 166 168 156 178 159 169 92 170 132 184 177 125 106 151
140 143 155 143 143 159 142 151 120 107 116 204 117 123 181 193 167 143 164 167 134 162 138 195 135 123 182 132 166 178 173 154 163 215 152 134 163 151 117 152 150 108 169
208 149 151 150 140 156 155 151 142 179 183 142 140 152 195 133 171 133 152 145 153 123 153 132 153 131 139 166 157 172 170 155 164 199 167 137 199 169 182 145 196 178 193
150 186 259 159 185 157 143 145 151 176 185 205 159 153 159 142 141 158 132 146 157 140 160 134 125 138 151 143 157 159 166 157 180 202 198 184 167 211 137 131 175 137 183
199 228 251 221 165 199 155 168 147 204 180 163 190 188 151 145 151 145 150 141 153 135 132 138 174 191 143 150 207 152 193 189 167 189 189 159 189 210 179 206 171 177 155
217 214 227 181 189 212 177 167 188 192 167 181 201 165 173 166 154 150 154 148 137 141 154 144 204 155 164 161 173 204 196 181 141 195 196 204 196 170 180 197 197 174 181
216 212 206 204 187 191 178 163 178 176 177 163 171 178 178 154 171 152 152 152 146 191 155 177 183 179 169 175 193 176 167 209 172 175 203 176 197 182 171 177 182 182 143
208 207 197 177 181 175 163 172 208 188 166 179 161 157 152 156 162 153 139 140 151 154 172 173 153 160 156 157 194 214 153 158 167 181 196 194 183 187 196 197 164 202 175
199 192 197 185 176 174 158 151 167 164 160 154 160 162 157 158 151 145 143 151 143 168 171 163 152 180 171 184 181 176 173 177 174 200 167 201 171 150 185 195 196 211 190
203 191 203 190 161 158 160 177 158 158 180 175 153 152 149 151 154 156 141 154 180 157 193 186 175 170 189 187 172 182 174 165 183 154 167 178 166 181 190 179 170 207 201
206 197 202 203 201 190 163 163 176 169 157 154 156 156 164 152 159 163 176 190 177 174 176 171 165 181 174 176 177 187 173 174 199 176 203 178 200 193 200 190 177 185 172
202 211 222 212 199 192 191 184 184 182 161 161 162 163 175 194 188 193 185 186 181 183 163 172 187 175 184 187 183 179 183 194 187 196 184 177 178 203 170 193 203 174 169
214 204 205 200 193 209 192 182 175 204 185 192 190 189 185 190 189 201 186 180 190 179 176 172 182 165 193 168 168 194 206 162 166 175 168 178 199 210 175 176 186 195 175
260 266 218 212 205 198 192 199 178 185 184 197 182 177 174 179 180 175 184 184 180 189 193 178 173 171 176 174 178 179 169 192 190 189 184 178 173 172 168 177 192 181 181
260 199 254 238 170 188 217 190 186 184 182 209 192 191 198 192 202 177 194 192 189 180 191 179 185 205 190 205 190 186 193 200 190 196 196 183 190 170 192 181 154 172 185
236 248 266 242 224 194 202 217 191 192 205 183 182 203 184 176 187 195 183 196 197 179 179 201 200 190 189 164 193 190 176 164 203 168 170 177 177 185 165 174 177 168 181
257 272 246 264 212 229 209 211 202 194 183 200 214 188 191 182 199 198 196 200 197 197 178 190 173 191 196 181 178 184 207 195 198 185 190 182 196 192 201 214 191 196 200
251 254 233 245 246 198 220 214 202 211 206 200 204 203 190 208 196 200 182 181 200 201 193 172 199 182 174 190 186 173 175 175 171 182 186 177 193 178 185 196 188 180 194
279 242 276 246 229 194 226 213 203 227 191 212 197 198 201 205 210 197 190 202 181 200 203 198 206 212 206 213 202 200 183 186 197 196 178 187 202 209 216 219 196 206 198
Wind_Speed
51 55 69 53 46 72 43 29 51 53 45 52 47 66 51 49 43 34 31 34 42 35 34 36 43 43 37 37 31 46 44 42 49 33 49 54 55 36 56 49 40 51 50
46 66 61 42 72 32 22 19 16 15 17 48 32 42 51 36 39 41 44 38 39 30 34 44 41 34 26 38 42 43 48 47 48 42 43 52 42 34 60 38 48 46 60
55 71 91 82 89 59 44 65 58 67 55 37 48 48 47 50 41 56 43 41 35 30 37 50 37 35 37 47 47 55 47 51 35 46 49 55 62 61 29 50 69 63 62
68 29 38 81 92 80 68 20 53 59 53 61 45 40 48 52 50 51 49 40 45 38 61 41 30 39 39 39 42 47 48 55 53 37 41 52 38 51 67 66 33 59 45
38 35 34 26 82 78 71 65 67 67 57 36 38 42 14 26 51 54 44 40 47 44 61 31 41 35 37 43 67 49 58 64 44 59 63 46 50 44 55 63 68 63 60
48 31 39 94 48 54 82 81 64 48 54 52 61 39 48 45 45 51 48 40 31 41 34 40 34 36 43 47 47 52 59 61 47 41 45 46 41 27 45 44 33 51 33
72 42 48 64 44 47 51 40 40 88 47 62 49 40 43 37 30 55 45 38 38 46 69 44 39 51 40 56 48 52 54 58 68 43 36 65 41 45 66 55 62 49 63
71 63 61 60 99 54 62 85 104 64 81 42 57 63 45 40 73 49 34 52 29 82 63 56 48 60 69 66 60 78 78 69 78 69 73 53 60 41 68 58 57 68 58
66 70 74 62 63 65 66 66 50 44 52 94 46 43 83 94 63 61 76 71 41 74 55 77 61 52 73 61 69 70 83 71 73 62 57 51 62 49 57 69 54 69 65
82 80 79 79 66 75 72 72 67 82 83 67 61 68 96 46 74 41 72 58 66 37 78 58 73 58 67 84 80 87 79 76 85 82 70 57 82 66 77 61 75 70 75
85 74 103 84 83 82 78 74 76 72 92 107 59 70 75 55 52 80 39 63 75 66 82 62 47 76 81 80 86 86 81 70 80 85 89 72 71 81 64 64 78 65 88
85 85 112 107 84 94 85 87 79 107 92 85 99 96 79 68 80 67 77 60 83 58 54 71 80 94 67 84 76 77 85 66 89 87 84 59 73 81 91 83 70 83 53
100 102 117 91 92 119 93 88 95 99 83 89 99 79 92 91 78 70 82 74 50 69 88 71 75 90 95 89 92 78 72 93 67 76 96 81 85 86 72 86 94 86 101
105 105 106 109 99 102 95 85 95 97 98 89 92 95 85 85 93 85 86 85 74 89 93 96 73 91 95 94 75 94 92 81 75 108 88 87 90 76 93 94 84 105 72
103 105 108 94 101 95 81 93 107 101 91 92 91 86 85 92 93 90 56 64 68 99 104 102 75 85 75 87 90 78 70 58 96 106 97 94 96 106 96 104 69 101 82
103 101 105 102 94 95 82 71 97 96 94 87 94 97 91 96 90 84 82 96 74 102 109 89 67 107 104 104 106 111 111 114 72 92 85 103 97 61 119 102 93 95 100
110 101 112 101 78 74 88 96 89 89 99 94 87 90 85 91 95 96 69 97 105 81 109 109 109 95 111 112 104 118 101 83 112 62 81 110 82 118 91 107 77 103 111
111 102 113 105 102 102 93 92 102 93 88 86 95 97 99 102 104 108 110 109 106 88 90 89 81 115 83 111 105 121 83 100 110 92 110 103 113 119 110 123 105 118 79
103 112 116 115 109 104 106 105 106 104 102 102 109 109 109 112 113 114 115 120 113 109 86 102 116 110 124 124 117 106 122 124 126 119 125 106 116 117 96 124 109 104 97
113 105 107 100 97 114 105 95 82 114 104 113 110 111 113 118 120 124 120 110 117 103 98 93 117 79 123 79 83 127 123 74 84 115 91 117 129 116 115 120 132 125 86
76 67 111 110 107 101 95 109 61 94 86 118 100 89 82 94 99 83 103 102 100 123 131 99 93 94 106 107 106 112 90 136 124 121 132 118 112 112 103 106 141 129 118
54 54 83 98 44 63 126 95 82 87 79 125 103 106 125 118 132 98 132 131 125 109 135 106 121 140 130 137 128 118 138 134 124 137 127 132 137 107 141 126 70 115 145
101 88 63 115 126 87 97 130 87 88 126 87 82 129 95 85 107 121 100 134 137 97 99 144 140 132 139 85 147 144 111 87 148 97 99 125 122 147 93 112 120 93 126
60 45 94 60 115 125 129 128 117 105 91 127 135 103 114 97 127 138 137 142 136 138 109 129 97 135 150 122 116 135 156 157 154 143 151 139 152 153 162 154 156 160 151
75 63 58 100 92 93 132 130 117 109 128 133 117 128 122 146 129 125 106 102 134 151 147 102 152 122 110 132 127 108 112 113 107 137 150 128 165 127 140 162 139 117 141
15 83 39 87 100 82 109 128 126 140 105 138 128 113 136 150 152 133 119 142 107 150 151 147 156 158 156 160 162 158 124 138 157 168 123 137 147 169 171 167 161 168 157
Wind_Direction
242 244 252 229 218 218 243 255 240 240 234 237 241 240 231 236 236 256 251 249 254 256 267 264 262 265 292 289 281 284 291 296 287 309 295 284 289 315 289 294 303 302 289
220 212 230 229 243 193 214 221 233 241 262 243 268 252 240 268 250 246 257 265 270 261 267 260 265 281 273 286 286 290 281 293 296 300 293 299 305 303 290 311 289 305 296
202 217 216 188 190 245 249 226 243 227 239 241 230 241 242 238 266 247 260 261 263 266 272 263 278 280 282 278 283 277 289 287 298 287 290 290 283 295 290 303 295 291 306
196 239 227 233 193 221 236 238 245 239 243 244 244 250 244 245 255 252 256 257 264 264 261 273 295 289 286 291 296 290 296 275 285 295 298 284 298 305 281 295 315 299 294
231 233 251 266 231 234 238 243 230 243 241 243 249 237 209 273 252 254 248 257 263 268 245 281 263 301 296 292 276 296 283 271 292 292 281 280 303 292 288 300 286 283 298
230 256 235 182 214 238 236 225 222 249 250 246 249 261 244 259 263 254 249 252 278 272 270 270 278 282 309 306 299 290 283 277 292 284 286 300 288 292 288 300 294 284 293
227 249 237 216 237 243 244 260 263 224 247 245 252 250 247 272 263 243 251 266 256 258 245 269 281 295 261 278 299 285 286 287 284 282 277 285 274 273 293 280 285 275 295
239 249 256 255 183 251 238 213 200 242 214 256 253 247 253 245 247 266 265 271 273 250 273 284 285 296 257 283 288 273 279 286 278 284 284 289 292 278 270 268 274 294 299
255 257 247 260 258 234 246 243 252 265 261 213 256 255 231 232 245 266 253 247 273 256 296 247 294 287 257 301 284 264 272 295 291 255 293 277 301 284 275 281 291 289 306
199 242 243 244 252 242 241 242 247 229 223 253 259 253 231 272 244 286 263 278 272 274 273 293 279 290 292 275 285 270 280 294 294 264 296 282 274 303 272 289 302 306 302
233 216 177 234 214 240 253 251 242 232 223 216 244 254 252 279 284 255 287 279 263 290 271 295 274 295 290 297 289 290 287 269 277 259 265 290 279 272 275 273 307 271 311
195 191 178 182 231 199 243 232 253 207 227 246 227 231 262 276 265 274 279 286 272 295 288 293 273 259 291 292 262 293 259 266 299 270 269 300 267 272 301 281 306 310 290
184 183 181 214 207 194 222 234 218 217 241 230 222 251 245 252 263 274 274 283 283 294 284 287 254 290 285 287 277 249 254 280 265 261 269 268 268 302 283 288 290 309 309
184 187 192 194 209 209 222 245 227 232 231 249 243 239 247 264 252 274 279 283 291 254 290 270 265 273 282 280 257 277 290 249 288 293 261 288 272 287 302 298 292 301 289
188 193 199 221 217 227 244 231 205 224 248 237 255 260 266 264 262 274 286 287 274 287 274 274 286 284 291 280 265 249 262 281 289 286 266 267 285 289 283 287 303 287 304
196 202 204 213 223 224 244 255 240 246 253 263 256 258 264 266 273 281 283 281 287 276 276 285 284 270 281 272 271 278 281 281 280 267 294 270 295 283 291 288 285 282 299
196 206 199 211 235 243 240 229 250 254 234 242 267 268 273 274 274 272 278 279 261 270 253 259 271 281 266 269 283 277 279 291 278 281 296 287 291 291 282 295 292 284 293
197 203 202 205 209 216 243 244 233 245 259 264 265 267 259 272 269 270 258 250 265 263 269 269 282 270 267 277 270 273 274 284 273 285 273 286 281 286 281 292 300 296 292
203 200 197 202 210 218 218 228 231 236 256 260 261 264 259 237 245 244 248 249 258 257 281 277 264 277 268 268 271 281 276 272 273 274 282 287 290 278 297 289 284 300 301
203 210 209 217 224 212 227 240 253 222 243 236 237 240 248 245 244 240 251 259 253 265 275 282 270 278 264 284 285 268 266 287 289 290 290 289 279 275 296 298 295 290 286
200 203 209 214 217 225 233 226 256 236 247 232 248 257 269 263 260 269 261 256 269 259 255 274 282 280 270 283 274 275 287 273 278 277 284 287 288 289 293 291 289 295 296
209 217 211 216 244 242 215 231 253 249 261 230 246 250 242 252 242 271 250 256 260 267 262 278 275 259 271 262 273 278 271 272 282 278 277 287 286 289 285 291 287 293 294
210 213 223 210 213 238 240 218 255 246 233 266 270 241 266 266 258 255 270 254 255 271 274 258 258 267 270 281 269 273 284 283 271 287 289 288 289 287 288 290 290 287 290
231 228 220 242 224 219 226 226 238 250 268 241 238 259 260 273 257 251 254 254 263 263 276 271 280 272 266 279 280 279 269 274 274 282 279 283 276 284 282 279 287 290 288
233 238 247 227 233 245 226 230 242 244 247 245 249 247 255 247 258 257 269 276 259 257 263 274 264 270 279 269 272 280 280 281 282 280 281 283 280 284 284 284 286 289 287
255 241 251 241 237 254 242 238 243 237 257 241 253 257 253 250 250 264 267 258 275 260 260 266 264 263 268 262 268 273 279 278 274 276 279 278 277 279 279 278 283 282 286